TimeEDT,TemperatureF,Dew PointF,Humidity,Sea Level PressureIn,VisibilityMPH,Wind Direction,Wind SpeedMPH,Gust SpeedMPH,PrecipitationIn,Events,Conditions,WindDirDegrees,DateUTC
12:14 AM,55.8,45.9,69,29.86,10.0,Calm,Calm,-,N/A,,Clear,0,2013-04-29 04:14:00
12:35 AM,47.5,41.2,79,29.87,10.0,Calm,Calm,-,N/A,,Clear,0,2013-04-29 04:35:00
12:54 AM,48.4,43.0,82,29.87,10.0,Calm,Calm,-,N/A,,Clear,0,2013-04-29 04:54:00
1:14 AM,53.8,46.6,77,29.87,10.0,SSE,4.6,-,N/A,,Clear,160,2013-04-29 05:14:00
1:35 AM,54.1,47.3,78,29.87,10.0,SSE,5.8,-,N/A,,Clear,160,2013-04-29 05:35:00
1:54 AM,53.6,47.3,79,29.87,10.0,SSE,4.6,-,N/A,,Clear,160,2013-04-29 05:54:00
2:14 AM,53.1,47.3,81,29.87,10.0,SSE,4.6,-,N/A,,Clear,150,2013-04-29 06:14:00
2:35 AM,52.7,47.3,82,29.87,10.0,SSE,4.6,-,N/A,,Clear,160,2013-04-29 06:35:00
2:54 AM,52.3,47.7,84,29.86,10.0,SSE,4.6,-,N/A,,Clear,150,2013-04-29 06:54:00
3:14 AM,51.8,47.5,85,29.86,10.0,South,6.9,-,N/A,,Clear,170,2013-04-29 07:14:00
3:35 AM,51.3,48.0,89,29.86,10.0,SSE,5.8,-,N/A,,Clear,160,2013-04-29 07:35:00
3:54 AM,50.9,47.8,89,29.86,10.0,SE,3.5,-,N/A,,Clear,130,2013-04-29 07:54:00
4:14 AM,50.2,47.5,90,29.85,10.0,SE,4.6,-,N/A,,Clear,130,2013-04-29 08:14:00
4:35 AM,49.3,47.3,93,29.86,10.0,Calm,Calm,-,N/A,,Clear,0,2013-04-29 08:35:00
4:54 AM,48.9,47.5,95,29.87,10.0,SSE,5.8,-,N/A,,Clear,160,2013-04-29 08:54:00
5:15 AM,49.1,48.0,96,29.87,10.0,SSE,4.6,-,N/A,,Clear,160,2013-04-29 09:15:00
5:35 AM,49.3,48.2,96,29.87,10.0,SE,5.8,-,N/A,,Clear,140,2013-04-29 09:35:00
5:54 AM,48.2,46.9,95,29.87,10.0,SE,4.6,-,N/A,,Clear,130,2013-04-29 09:54:00
6:15 AM,48.4,47.5,97,29.87,10.0,SE,4.6,-,N/A,,Clear,140,2013-04-29 10:15:00
6:34 AM,48.2,47.5,97,29.87,7.0,SE,4.6,-,N/A,,Clear,140,2013-04-29 10:34:00
6:55 AM,47.5,46.9,98,29.87,5.0,ESE,3.5,-,N/A,,Clear,120,2013-04-29 10:55:00
7:15 AM,47.5,47.3,99,29.87,5.0,SE,4.6,-,N/A,,Clear,140,2013-04-29 11:15:00
7:34 AM,49.1,48.7,99,29.87,7.0,SE,4.6,-,N/A,,Clear,130,2013-04-29 11:34:00
7:55 AM,51.8,50.9,97,29.88,7.0,SSE,5.8,-,N/A,,Clear,160,2013-04-29 11:55:00
8:14 AM,53.2,51.4,94,29.89,10.0,SSE,5.8,-,N/A,,Mostly Cloudy,160,2013-04-29 12:14:00
8:34 AM,54.5,51.8,91,29.89,10.0,South,3.5,-,N/A,,Scattered Clouds,180,2013-04-29 12:34:00
8:55 AM,55.9,52.2,87,29.89,10.0,SSE,6.9,-,N/A,,Scattered Clouds,160,2013-04-29 12:55:00
9:14 AM,57.2,52.2,83,29.89,10.0,SSE,3.5,-,N/A,,Clear,160,2013-04-29 13:14:00
9:34 AM,57.6,50.9,78,29.89,10.0,SSW,6.9,-,N/A,,Scattered Clouds,200,2013-04-29 13:34:00
9:55 AM,59.0,51.4,76,29.88,10.0,SSW,5.8,-,N/A,,Mostly Cloudy,200,2013-04-29 13:55:00
10:14 AM,60.3,51.8,74,29.88,10.0,South,6.9,-,N/A,,Scattered Clouds,170,2013-04-29 14:14:00
10:34 AM,61.7,51.8,70,29.88,10.0,SW,8.1,17.3,N/A,,Clear,220,2013-04-29 14:34:00
10:55 AM,60.6,51.1,71,29.88,10.0,SW,5.8,-,N/A,,Mostly Cloudy,220,2013-04-29 14:55:00
11:14 AM,61.5,51.8,70,29.88,10.0,WSW,6.9,-,N/A,,Mostly Cloudy,240,2013-04-29 15:14:00
11:34 AM,60.8,51.3,71,29.87,10.0,South,3.5,-,N/A,,Mostly Cloudy,190,2013-04-29 15:34:00
11:55 AM,60.6,51.3,71,29.85,10.0,SE,8.1,-,N/A,,Overcast,130,2013-04-29 15:55:00
12:14 PM,61.0,51.3,70,29.86,10.0,SE,5.8,-,N/A,,Overcast,130,2013-04-29 16:14:00
12:34 PM,61.7,51.6,69,29.87,10.0,SSW,4.6,-,N/A,,Overcast,200,2013-04-29 16:34:00
12:55 PM,61.7,51.6,69,29.87,10.0,SSW,5.8,-,N/A,,Overcast,200,2013-04-29 16:55:00
1:14 PM,55.2,47.3,75,29.88,10.0,NW,10.4,19.6,N/A,,Overcast,320,2013-04-29 17:14:00
1:35 PM,54.9,48.6,79,29.88,10.0,NNW,5.8,-,N/A,,Overcast,330,2013-04-29 17:35:00
1:55 PM,54.5,50.5,86,29.88,5.0,West,9.2,-,N/A,,Light Drizzle,270,2013-04-29 17:55:00
2:14 PM,51.8,50.2,94,29.89,4.0,West,12.7,-,N/A,,Light Drizzle,270,2013-04-29 18:14:00
2:35 PM,49.3,48.4,97,29.89,2.5,West,12.7,-,N/A,Rain,Light Rain,260,2013-04-29 18:35:00
2:54 PM,50.0,49.6,99,29.89,2.5,WSW,11.5,-,N/A,Rain,Light Rain,250,2013-04-29 18:54:00
3:14 PM,50.0,49.8,99,29.89,1.8,WSW,9.2,-,N/A,Rain,Rain,250,2013-04-29 19:14:00
3:34 PM,50.5,50.5,100,29.88,2.0,Calm,Calm,-,N/A,Rain,Light Rain,0,2013-04-29 19:34:00
3:54 PM,51.3,51.1,99,29.88,2.0,Calm,Calm,-,N/A,Rain,Light Rain,0,2013-04-29 19:54:00
4:15 PM,52.2,52.2,100,29.88,1.8,SE,3.5,-,N/A,Rain,Rain,130,2013-04-29 20:15:00
4:34 PM,52.3,52.3,100,29.87,1.5,East,6.9,-,N/A,Rain,Light Rain,100,2013-04-29 20:34:00
4:54 PM,52.0,52.0,100,29.87,1.0,ESE,5.8,-,N/A,Rain,Light Rain,120,2013-04-29 20:54:00
5:15 PM,53.6,53.6,100,29.87,1.8,SE,5.8,-,N/A,Rain,Light Rain,130,2013-04-29 21:15:00
5:34 PM,53.4,53.4,100,29.86,1.2,East,6.9,-,N/A,Rain,Light Rain,100,2013-04-29 21:34:00
5:54 PM,52.7,52.7,100,29.86,1.0,ESE,6.9,-,N/A,,Overcast,120,2013-04-29 21:54:00
6:15 PM,53.8,53.8,100,29.86,2.5,ESE,6.9,-,N/A,,Overcast,120,2013-04-29 22:15:00
6:34 PM,53.8,53.8,100,29.86,2.0,ESE,4.6,-,N/A,Rain,Light Rain,110,2013-04-29 22:34:00
6:54 PM,54.7,54.7,100,29.87,1.8,SSE,3.5,-,N/A,Rain,Light Rain,150,2013-04-29 22:54:00
7:15 PM,55.4,55.4,100,29.86,2.0,ESE,6.9,-,N/A,Rain,Light Rain,120,2013-04-29 23:15:00
7:34 PM,54.5,54.5,100,29.86,1.8,ESE,5.8,-,N/A,,Overcast,110,2013-04-29 23:34:00
7:55 PM,54.0,54.0,100,29.86,1.8,ESE,4.6,-,N/A,Rain,Light Rain,110,2013-04-29 23:55:00
8:15 PM,54.1,54.1,100,29.87,1.5,East,3.5,-,N/A,Rain,Light Rain,100,2013-04-30 00:15:00
8:34 PM,54.5,54.5,100,29.87,2.0,East,4.6,-,N/A,,Overcast,100,2013-04-30 00:34:00
8:55 PM,55.0,55.0,100,29.86,2.5,ESE,5.8,-,N/A,,Overcast,120,2013-04-30 00:55:00
9:14 PM,54.5,54.5,100,29.87,2.5,ESE,5.8,-,N/A,,Overcast,120,2013-04-30 01:14:00
9:34 PM,54.7,54.7,100,29.88,3.0,SE,4.6,-,N/A,,Overcast,130,2013-04-30 01:34:00
9:54 PM,54.9,54.9,100,29.88,3.0,ESE,5.8,-,N/A,,Overcast,120,2013-04-30 01:54:00
10:14 PM,55.0,55.0,100,29.88,3.0,ESE,4.6,-,N/A,,Scattered Clouds,120,2013-04-30 02:14:00
10:35 PM,54.9,54.9,100,29.88,3.0,ESE,4.6,-,N/A,,Scattered Clouds,120,2013-04-30 02:35:00
10:54 PM,54.5,54.5,100,29.88,4.0,ESE,4.6,-,N/A,,Scattered Clouds,120,2013-04-30 02:54:00
11:34 PM,53.4,53.4,100,29.88,1.0,ESE,4.6,-,N/A,,Overcast,110,2013-04-30 03:34:00
11:54 PM,53.6,53.6,100,29.88,2.0,ESE,5.8,-,N/A,,Mostly Cloudy,110,2013-04-30 03:54:00